This is the latest recevied weather packets stored in our database for station/object NC4M. If no packets are shown the sender has not sent any weather packets the latest 10 day(s).
| Time | Temp. | Humidity | Pressure | Rain* | Wind** | Luminosity | Snow |
|---|---|---|---|---|---|---|---|
| 1777575628 | 19.44° C | 28% | 1017.6 hPa | 0 mm | - | 468 W/m² | - |
| 1777575324 | 18.89° C | 35% | 1017.7 hPa | 0 mm | - | 131 W/m² | - |
| 1777575020 | 18.89° C | 29% | 1017.6 hPa | 0 mm | - | 126 W/m² | - |
| 1777574716 | 18.33° C | 38% | 1018 hPa | 0 mm | - | 123 W/m² | - |
| 1777574414 | 18.33° C | 31% | 1017.9 hPa | 0 mm | - | 750 W/m² | - |
| 1777574109 | 18.33° C | 28% | 1018.1 hPa | 0 mm | - | 425 W/m² | - |
| 1777573804 | 18.89° C | 27% | 1018 hPa | 0 mm | - | 902 W/m² | - |
| 1777573500 | 19.44° C | 28% | 1018.1 hPa | 0 mm | - | 897 W/m² | - |
| 1777573196 | 20° C | 30% | 1018.1 hPa | 0 mm | - | 893 W/m² | - |
| 1777572893 | 18.89° C | 32% | 1018.3 hPa | 0 mm | - | 902 W/m² | - |
| 1777572588 | 19.44° C | 26% | 1018.5 hPa | 0 mm | - | 884 W/m² | - |
| 1777572284 | 19.44° C | 26% | 1018.7 hPa | 0 mm | - | 915 W/m² | - |
| 1777571979 | 19.44° C | 40% | 1018.6 hPa | 0 mm | - | 915 W/m² | - |
| 1777571679 | 18.89° C | 35% | 1018.6 hPa | 0 mm | - | 911 W/m² | - |
| 1777571378 | 18.33° C | 34% | 1018.7 hPa | 0 mm | - | 842 W/m² | - |
| 1777571073 | 17.78° C | 32% | 1018.7 hPa | 0 mm | - | 875 W/m² | - |
| 1777570769 | 17.78° C | 32% | 1018.7 hPa | 0 mm | - | 834 W/m² | - |
| 1777570466 | 18.33° C | 30% | 1018.8 hPa | 0 mm | - | 768 W/m² | - |
| 1777570162 | 18.89° C | 26% | 1019.1 hPa | 0 mm | - | 786 W/m² | - |
| 1777569858 | 18.89° C | 32% | 1019.1 hPa | 0 mm | - | 890 W/m² | - |
| 1777569554 | 18.33° C | 33% | 1019.1 hPa | 0 mm | - | 886 W/m² | - |
| 1777569251 | 18.89° C | 29% | 1019 hPa | 0 mm | - | 864 W/m² | - |
| 1777568947 | 17.78° C | 36% | 1019.1 hPa | 0 mm | - | 878 W/m² | - |
| 1777568643 | 17.22° C | 37% | 1019.1 hPa | 0 mm | - | 796 W/m² | - |
| 1777568341 | 17.22° C | 33% | 1019.2 hPa | 0 mm | - | 802 W/m² | - |
* Rain latest hour (hover to see other rain measurements)
** Current wind speed in m/s (hover to see current wind gust speed)